{"data":{"norad_id":58301,"intl_designator":"2023-174AX","name":"LEO EXPRESS 1","alt_names":[],"object_type":"PAYLOAD","status":"ACTIVE","operator":null,"country":"US","launch_date":"2023-11-11","launch_site_code":"AFWTR","launch_vehicle":null,"mission":null,"orbit_class":"UNKNOWN","rcs_meters":null,"size_class":null,"mass_kg":null,"dimensions":null,"purposes":[],"wikipedia_slug":null,"has_3d_model":false,"image_url":null,"decayed_at":null,"tle_current":{"epoch":"2026-09-21T18:19:51.353184Z","epoch_age_seconds":132839,"freshness":"FRESH","line1":"1 58301U 23174AX  26264.76378881  .00011371  00000+0  28717-3 0  9992","line2":"2 58301  97.5150 352.3337 0070418 136.0637 224.6237 15.37408932159720","mean_motion":15.37408932,"eccentricity":0.0070418,"inclination_deg":97.515,"raan_deg":352.3337,"arg_perigee_deg":136.0637,"mean_anomaly_deg":224.6237,"bstar":0.00028717,"rev_number":15972,"period_min":93.664084423311,"perigee_km":405.66569383711,"apogee_km":501.88360474104,"semimajor_km":6831.9116492891,"source":"CELESTRAK","updated_at":"2026-09-22T09:00:26.580718Z"}}}